Terminal Aerodrome Forecast
Issued by NWS

Current Version | Previous Version | Graphics & Text | Print | Product List | Glossary On
Versions: 1 2 3 4 5 6 7 8 9 10 11 12 13 14 15 16 17 18 19 20 21 22 23 24 25 26 27 28 29 30 31 32 33 34 35 36 37 38 39 40 41 42 43 44 45 46
000
FTUS41 KRNK 151724
TAFLWB
TAF
KLWB 151724Z 1518/1618 35006KT P6SM SCT006 BKN035
     FM152200 12007KT P6SM SCT250
     FM160500 14004KT P6SM SCT100 OVC150
     FM160900 02003KT 4SM -SHRA BR SCT012 OVC060
     FM161300 18004KT 2SM -SHRA BR OVC012=

USA.gov is the U.S. government's official web portal to all federal, state and local government web resources and services.